Flag for Russia Weather past 2 weeks in Sochi, Russia

Now
84 °F

Broken clouds.


Feels Like: 87 °F
Forecast: 74 / 90 °F
Wind: 6 mph from Northwest

Location: Adler

Current Time: Jul 25, 2014 at 3:26:08 PM

Latest Report: Jul 25, 2014 at 3:00 PM


Visibility: N/A

Pressure: 29.74 "Hg

Humidity: 58%

Dew point: 68 °F

Location of SochiLocation

Historic Weather in Sochi — Graph

°F

Sochi temperature yesterday

Maximum temperature yesterday: 88 °F (at 3:00 PM)
Minimum temperature yesterday: 72 °F (at 5:00 AM)
Average temperature yesterday: 80 °F

Past Weeks' High & Low Weather Summary

 TemperatureHumidityPressure
High97 °F (Jul 12, 1:00 PM)94% (Jul 14, 5:00 AM)29.86 "Hg (Jul 14, 5:00 AM)
Low66 °F (Jul 11, 2:30 AM)27% (Jul 12, 1:30 PM)29.59 "Hg (Jul 24, 7:00 PM)
Average78 °F71%29.74 "Hg
* Reported Jul 10 2:00 PM — Jul 25 2:30 PM, Sochi, Weather by CustomWeather, © 2014

Note: Actual official high and low records may vary slightly from our data, if they occured in-between our weather recording intervals... More about our weather records

Advertising

Sochi weather history for previous 24 hours

 ConditionsComfort  
Time TempWeatherWind HumidityBarometerVisibility
2:30 PM
Jul 25
82 °FBroken clouds.13 mph66%29.77 "HgN/A
2:00 PM84 °FPartly sunny.13 mph62%29.77 "HgN/A
1:30 PM82 °FPartly sunny.10 mph70%29.74 "HgN/A
1:00 PM84 °FPartly sunny.8 mph66%29.74 "HgN/A
12:30 PM82 °FPartly sunny.8 mph74%29.74 "HgN/A
12:00 PM82 °FPartly sunny.10 mph70%29.74 "HgN/A
11:30 AM84 °FPartly sunny.8 mph62%29.74 "HgN/A
11:00 AM86 °FPartly sunny.10 mph49%29.74 "HgN/A
10:30 AM84 °FPartly sunny.10 mph58%29.71 "HgN/A
10:00 AM82 °FPartly sunny.15 mph70%29.68 "HgN/A
9:30 AM82 °FPartly sunny.13 mph74%29.68 "HgN/A
9:00 AM81 °FPartly sunny.15 mph74%29.68 "HgN/A
8:30 AM81 °FOvercast.10 mph74%29.68 "HgN/A
8:00 AM79 °FOvercast.6 mph74%29.71 "HgN/A
7:30 AM77 °FOvercast.10 mph74%29.68 "HgN/A
6:30 AM75 °FMostly cloudy.8 mph78%29.68 "HgN/A
6:00 AM77 °FMostly cloudy.8 mph79%29.68 "HgN/A
5:30 AM77 °FOvercast.10 mph79%29.68 "HgN/A
5:00 AM75 °FPartly cloudy.8 mph78%29.65 "HgN/A
4:30 AM75 °FPartly cloudy.8 mph74%29.65 "HgN/A
4:00 AM75 °FPassing clouds.8 mph78%29.65 "HgN/A
3:30 AM73 °FClear.8 mph83%29.65 "HgN/A
3:00 AM75 °FClear.8 mph78%29.65 "HgN/A
2:30 AM75 °FClear.8 mph83%29.62 "HgN/A
2:00 AM77 °FClear.6 mph74%29.62 "HgN/A
1:30 AM79 °FClear.3 mph70%29.62 "HgN/A
1:00 AM75 °FClear.6 mph78%29.59 "HgN/A
12:30 AM77 °FPassing clouds.No wind74%29.59 "HgN/A
12:00 AM77 °FPassing clouds.No wind74%29.59 "HgN/A
11:30 PM
Jul 24
77 °FPassing clouds.No wind74%29.59 "HgN/A
11:00 PM77 °FPassing clouds.No wind74%29.59 "HgN/A
10:30 PM79 °FPassing clouds.No wind74%29.59 "HgN/A
10:00 PM79 °FPassing clouds.3 mph74%29.59 "HgN/A
9:30 PM81 °FPassing clouds.3 mph70%29.59 "HgN/A
9:00 PM82 °FSunny.6 mph62%29.59 "HgN/A
8:30 PM84 °FSunny.10 mph58%29.59 "HgN/A
8:00 PM86 °FSunny.8 mph52%29.59 "HgN/A
7:30 PM86 °FSunny.8 mph49%29.59 "HgN/A
7:00 PM88 °FSunny.10 mph43%29.59 "HgN/A
6:30 PM88 °FPassing clouds.10 mph40%29.62 "HgN/A
6:00 PM88 °FPassing clouds.10 mph40%29.62 "HgN/A
5:30 PM88 °FPassing clouds.13 mph38%29.62 "HgN/A
4:30 PM88 °FPassing clouds.13 mph43%29.65 "HgN/A
4:00 PM88 °FPassing clouds.13 mph49%29.65 "HgN/A
3:30 PM88 °FPassing clouds.10 mph52%29.65 "HgN/A
3:00 PM88 °FSunny.13 mph49%29.65 "HgN/A
Weather by CustomWeather, © 2014

See weather overviewHow to use our weather pages